Погода в Лясковичах

Беларусь     52°06′52″N   28°09′17″E
темп.,
°C
ветер,
м/с
пор.,
м/с
влажн.,
%
обл.,
%
осадки,
мм/ч
давл.,
гПа
погр.,
м
17 июня, чт
чт1700:00+15св22825 0.0 101923
03:00+14св35860 0.0 102082
06:00+14ссв378723 0.0 1020169
09:00+20всв356832 0.0 1021433
12:00+25всв45557 0.0 10211509
15:00+25всв455081 0.0 10211588
18:00+25всв45511 0.0 10211573
21:00+19всв38770 0.0 1022160
18 июня, пт
пт1800:00+16всв37840 0.0 1023119
03:00+14всв36920 0.0 1023106
06:00+14всв28915 0.0 1024201
09:00+20всв46680 0.0 1024507
12:00+24всв46585 0.0 10231238
15:00+26в56495 0.0 10221704
18:00+26в46515 0.0 10211364
21:00+19вюв37774 0.0 1022131
19 июня, сб
сб1900:00+17в379347 0.0 1023137
03:00+16в26965 0.0 1023127
06:00+16в269526 0.0 1023150
09:00+21в46712 0.0 1023643
12:00+25в56510 0.0 10221490
15:00+27вюв56456 0.0 10201818
18:00+26вюв465640 0.0 10201395
21:00+20вюв388544 1.1 1020189
20 июня, вс
вс2000:00+19в259295 0.1 1020100
03:00+19в2493100 0.3 102089
06:00+19в3795100 0.1 1020194
09:00+20в379342 0.1 1020321
12:00+27вюв465431 0.1 10191627
15:00+28вюв4548100 0.1 10171785
18:00+27в565332 0.0 10161276
21:00+21в38763 0.0 1017166
21 июня, пн
пн2100:00+18в36921 0.0 1017128
03:00+17в37975 0.0 1016156
06:00+17всв27965 0.0 1016187
09:00+22в476847 0.0 1016602
12:00+26в68534 0.0 10151167
15:00+29вюв585045 0.0 10131735
18:00+27в565618 0.0 10131146
21:00+23в397712 0.0 1013236